| time (UTC) | temp F | wind direction | speed MPH | gust MPH | rain 1hr in | rain 24hr in | rain mn in | humidity % | barometer mb |
| 20260505170017 | 80 | 180 | 2.0 | 8.0 | 0.00 | 0.00 | 0.00 | 42 | 1013.8 |
| 20260505164537 | 80 | 158 | 2.0 | 10.0 | 0.00 | 0.00 | 0.00 | 42 | 1014.0 |
| 20260505163017 | 81 | 203 | 2.0 | 4.0 | 0.00 | 0.00 | 0.00 | 44 | 1014.1 |
| 20260505161517 | 81 | 180 | 1.0 | 8.0 | 0.00 | 0.00 | 0.00 | 44 | 1014.3 |
| 20260505153016 | 77 | 23 | 1.0 | 8.0 | 0.00 | 0.00 | 0.00 | 49 | 1014.8 |
| 20260505151517 | 76 | 180 | 2.0 | 9.0 | 0.00 | 0.00 | 0.00 | 51 | 1014.8 |
| 20260505124536 | 62 | 0 | 1.0 | 3.0 | 0.00 | 0.00 | 0.00 | 70 | 1015.0 |
| 20260505123016 | 62 | 0 | 1.0 | 3.0 | 0.00 | 0.00 | 0.00 | 71 | 1015.0 |
| 20260505121516 | 61 | 0 | 1.0 | 4.0 | 0.00 | 0.00 | 0.00 | 72 | 1014.9 |
| 20260505120016 | 60 | 0.0 | 2.0 | 0.00 | 0.00 | 0.00 | 75 | 1014.7 | |
| 20260505114556 | 59 | 0.0 | 1.0 | 0.00 | 0.00 | 0.00 | 76 | 1014.7 | |
| 20260505113016 | 59 | 0 | 1.0 | 3.0 | 0.00 | 0.00 | 0.00 | 76 | 1014.4 |
| 20260505111516 | 58 | 0.0 | 2.0 | 0.00 | 0.00 | 0.00 | 76 | 1014.3 | |
| 20260505101516 | 59 | 0.0 | 4.0 | 0.00 | 0.00 | 0.00 | 72 | 1013.8 | |
| 20260505100016 | 60 | 0.0 | 4.0 | 0.00 | 0.00 | 0.00 | 71 | 1013.7 | |
| 20260505094536 | 60 | 0 | 1.0 | 2.0 | 0.00 | 0.00 | 0.00 | 70 | 1013.7 |
| 20260505093016 | 61 | 203 | 1.0 | 3.0 | 0.00 | 0.00 | 0.00 | 69 | 1013.7 |
| 20260505091516 | 61 | 158 | 1.0 | 3.0 | 0.00 | 0.00 | 0.00 | 69 | 1013.7 |
| 20260505090016 | 61 | 135 | 1.0 | 4.0 | 0.00 | 0.00 | 0.00 | 68 | 1013.7 |
| 20260505084516 | 62 | 248 | 1.0 | 3.0 | 0.00 | 0.00 | 0.00 | 68 | 1013.8 |
| 20260505083016 | 62 | 225 | 1.0 | 4.0 | 0.00 | 0.00 | 0.00 | 68 | 1013.6 |
| 20260505081516 | 62 | 135 | 1.0 | 7.0 | 0.00 | 0.00 | 0.00 | 67 | 1013.6 |
| 20260505080016 | 62 | 180 | 1.0 | 4.0 | 0.00 | 0.00 | 0.00 | 67 | 1013.7 |
| 20260505074516 | 62 | 225 | 1.0 | 6.0 | 0.00 | 0.00 | 0.00 | 66 | 1013.6 |
| 20260505073036 | 61 | 225 | 1.0 | 6.0 | 0.00 | 0.00 | 0.00 | 65 | 1013.4 |
| 20260505071516 | 61 | 225 | 1.0 | 2.0 | 0.00 | 0.00 | 0.00 | 65 | 1013.3 |
| 20260505070016 | 61 | 248 | 1.0 | 3.0 | 0.00 | 0.00 | 0.00 | 65 | 1013.2 |
| 20260505064516 | 61 | 248 | 1.0 | 4.0 | 0.00 | 0.00 | 0.00 | 64 | 1013.2 |
| 20260505063015 | 61 | 0.0 | 2.0 | 0.00 | 0.00 | 0.00 | 64 | 1013.1 | |
| 20260505061515 | 61 | 225 | 1.0 | 2.0 | 0.00 | 0.00 | 0.00 | 63 | 1013.1 |
| 20260505060015 | 61 | 0.0 | 2.0 | 0.00 | 0.00 | 0.00 | 63 | 1013.2 | |
| 20260505054516 | 61 | 68 | 1.0 | 3.0 | 0.00 | 0.00 | 0.00 | 62 | 1013.2 |
| 20260505053015 | 60 | 0.0 | 4.0 | 0.00 | 0.00 | 0.00 | 63 | 1013.2 | |
| 20260505051515 | 60 | 0.0 | 4.0 | 0.00 | 0.00 | 0.00 | 64 | 1013.1 | |
| 20260505041516 | 60 | 0.0 | 0.0 | 0.00 | 0.00 | 0.00 | 64 | 1012.7 | |
| 20260505040035 | 60 | 0.0 | 0.0 | 0.00 | 0.00 | 0.00 | 64 | 1012.6 | |
| 20260505034516 | 60 | 0.0 | 0.0 | 0.00 | 0.00 | 0.00 | 62 | 1012.6 | |
| 20260505033016 | 61 | 0.0 | 0.0 | 0.00 | 0.00 | 0.00 | 62 | 1012.7 | |
| 20260505031516 | 61 | 0.0 | 0.0 | 0.00 | 0.00 | 0.00 | 61 | 1012.7 | |
| 20260505030016 | 62 | 0.0 | 0.0 | 0.00 | 0.00 | 0.00 | 60 | 1012.8 | |
| 20260505024516 | 63 | 0.0 | 0.0 | 0.00 | 0.00 | 0.00 | 59 | 1012.8 | |
| 20260505023016 | 63 | 0.0 | 0.0 | 0.00 | 0.00 | 0.00 | 57 | 1012.7 | |
| 20260505021536 | 64 | 0.0 | 0.0 | 0.00 | 0.00 | 0.00 | 57 | 1012.6 | |
| 20260505020016 | 65 | 0.0 | 0.0 | 0.00 | 0.00 | 0.00 | 56 | 1012.6 | |
| 20260505014516 | 66 | 0.0 | 0.0 | 0.00 | 0.00 | 0.00 | 54 | 1012.5 | |
| 20260505013016 | 67 | 0.0 | 0.0 | 0.00 | 0.00 | 0.00 | 50 | 1012.4 | |
| 20260505011516 | 67 | 0.0 | 0.0 | 0.00 | 0.00 | 0.00 | 49 | 1012.1 | |
| 20260505010016 | 68 | 0.0 | 0.0 | 0.00 | 0.00 | 0.00 | 48 | 1012.0 | |
| 20260505004516 | 68 | 0.0 | 0.0 | 0.00 | 0.00 | 0.00 | 47 | 1011.7 | |
| 20260505003016 | 69 | 90 | 1.0 | 4.0 | 0.00 | 0.00 | 0.00 | 48 | 1011.7 |
| 20260505001515 | 70 | 0.0 | 1.0 | 0.00 | 0.00 | 0.00 | 44 | 1011.7 | |
| 20260505000016 | 70 | 0.0 | 1.0 | 0.00 | 0.00 | 0.00 | 42 | 1012.0 | |
| 20260504234515 | 72 | 0.0 | 1.0 | 0.00 | 0.00 | 0.00 | 40 | 1011.9 | |
| 20260504233015 | 73 | 0.0 | 1.0 | 0.00 | 0.00 | 0.00 | 39 | 1011.9 | |
| 20260504231515 | 74 | 0.0 | 1.0 | 0.00 | 0.00 | 0.00 | 37 | 1011.6 | |
| 20260504230015 | 76 | 113 | 1.0 | 4.0 | 0.00 | 0.00 | 0.00 | 36 | 1011.5 |
| 20260504224556 | 77 | 113 | 1.0 | 3.0 | 0.00 | 0.00 | 0.00 | 35 | 1011.8 |
| 20260504223015 | 77 | 225 | 1.0 | 3.0 | 0.00 | 0.00 | 0.00 | 34 | 1011.8 |
| 20260504221515 | 76 | 315 | 2.0 | 7.0 | 0.00 | 0.00 | 0.00 | 35 | 1011.6 |
| 20260504220016 | 76 | 113 | 1.0 | 9.0 | 0.00 | 0.00 | 0.00 | 38 | 1011.6 |
| 20260504214515 | 76 | 315 | 1.0 | 7.0 | 0.00 | 0.00 | 0.00 | 36 | 1011.5 |
| 20260504213015 | 76 | 248 | 1.0 | 7.0 | 0.00 | 0.00 | 0.00 | 34 | 1011.6 |
| 20260504211515 | 76 | 203 | 2.0 | 8.0 | 0.00 | 0.00 | 0.00 | 34 | 1011.7 |
| 20260504210016 | 76 | 270 | 1.0 | 3.0 | 0.00 | 0.00 | 0.00 | 38 | 1011.7 |
| 20260504204515 | 76 | 315 | 1.0 | 4.0 | 0.00 | 0.00 | 0.00 | 34 | 1011.7 |
| 20260504203015 | 76 | 225 | 2.0 | 5.0 | 0.00 | 0.00 | 0.00 | 38 | 1011.9 |
| 20260504201517 | 76 | 203 | 2.0 | 7.0 | 0.00 | 0.00 | 0.00 | 35 | 1012.1 |
| 20260504200015 | 76 | 225 | 1.0 | 5.0 | 0.00 | 0.00 | 0.00 | 37 | 1012.3 |
| 20260504194517 | 76 | 158 | 2.0 | 5.0 | 0.00 | 0.00 | 0.00 | 34 | 1012.5 |
| 20260504193017 | 76 | 270 | 2.0 | 8.0 | 0.00 | 0.00 | 0.00 | 34 | 1012.6 |
| 20260504191517 | 75 | 0 | 2.0 | 7.0 | 0.00 | 0.00 | 0.00 | 33 | 1012.8 |
| 20260504190017 | 75 | 293 | 2.0 | 5.0 | 0.00 | 0.00 | 0.00 | 35 | 1013.1 |
| 20260504184517 | 74 | 338 | 1.0 | 5.0 | 0.00 | 0.00 | 0.00 | 35 | 1013.3 |
| 20260504183017 | 74 | 315 | 1.0 | 8.0 | 0.00 | 0.00 | 0.00 | 38 | 1013.4 |
| 20260504181517 | 73 | 315 | 1.0 | 4.0 | 0.00 | 0.00 | 0.00 | 37 | 1013.5 |
| 20260504180017 | 73 | 315 | 1.0 | 5.0 | 0.00 | 0.00 | 0.00 | 36 | 1013.8 |
| 20260504174517 | 74 | 135 | 2.0 | 4.0 | 0.00 | 0.00 | 0.00 | 34 | 1013.7 |
| 20260504173037 | 73 | 315 | 2.0 | 4.0 | 0.00 | 0.00 | 0.00 | 35 | 1013.9 |
| 20260504171517 | 73 | 315 | 2.0 | 8.0 | 0.00 | 0.00 | 0.00 | 35 | 1014.2 |